CW8635 Weather Reports


time (UTC)temp
F
wind
direction
speed
knots
gust
knots
rain 1hr
in
rain 24hr
in
rain mn
in
humidity
%
barometer
mb
20260502161629 63 67 2.6 5.2 0.00 0.00 0.00 25 1021.0
20260502160629 62 94 4.3 7.0 0.00 0.00 0.00 27 1021.0
20260502151646 58 38 3.5 7.0 0.00 0.00 0.00 32 1021.2
20260502150630 57 50 3.5 8.7 0.00 0.00 0.00 33 1021.0
20260502130638 50 44 3.5 6.1 0.00 0.00 0.00 39 1020.7
20260502123612 49 53 4.3 7.8 0.00 0.00 0.00 39 1020.5
20260502122612 49 49 3.5 7.8 0.00 0.00 0.00 40 1020.5
20260502121616 49 34 4.3 7.8 0.00 0.00 0.00 39 1020.4
20260502120621 49 26 3.5 7.0 0.00 0.00 0.00 40 1020.5
20260502115613 49 32 3.5 8.7 0.00 0.00 0.00 40 1020.4
20260502114632 50 26 4.3 7.8 0.00 0.00 0.00 39 1020.4
20260502113635 50 45 3.5 7.0 0.00 0.00 0.00 40 1020.4
20260502112614 49 32 3.5 7.8 0.00 0.00 0.00 40 1020.5
20260502111613 49 22 3.5 6.1 0.00 0.00 0.00 41 1020.6
20260502110633 49 38 4.3 7.0 0.00 0.00 0.00 41 1020.6
20260502105627 49 33 3.5 5.2 0.00 0.00 0.00 41 1020.6
20260502104627 49 39 2.6 6.1 0.00 0.00 0.00 42 1020.6
20260502103627 49 48 3.5 5.2 0.00 0.00 0.00 43 1020.6
20260502102611 49 23 3.5 5.2 0.00 0.00 0.00 43 1020.5
20260502101612 49 27 3.5 7.0 0.00 0.00 0.00 46 1020.5
20260502100611 49 32 3.5 5.2 0.00 0.00 0.00 50 1020.5
20260502090630 49 58 2.6 4.3 0.00 0.00 0.00 51 1020.5
20260502070620 53 44 2.6 4.3 0.00 0.00 0.00 41 1020.2
20260502065634 52 331 2.6 3.5 0.00 0.00 0.00 45 1020.2
20260502064632 53 53 2.6 3.5 0.00 0.00 0.00 48 1020.3
20260502063650 53 53 2.6 3.5 0.00 0.00 0.00 42 1020.3
20260502062634 53 53 2.6 3.5 0.00 0.00 0.00 45 1020.4
20260502061612 53 53 1.7 2.6 0.00 0.00 0.00 42 1020.3
20260502060623 53 53 2.6 3.5 0.00 0.00 0.00 44 1020.2
20260502055615 53 53 1.7 2.6 0.00 0.00 0.00 43 1020.2
20260502054619 54 53 1.7 2.6 0.00 0.00 0.00 40 1020.2
20260502053619 54 53 1.7 2.6 0.00 0.00 0.00 41 1020.2
20260502052620 54 53 1.7 3.5 0.00 0.00 0.00 41 1020.1
20260502051640 54 53 1.7 2.6 0.00 0.00 0.00 41 1020.2
20260502050622 55 53 2.6 3.5 0.00 0.00 0.00 41 1020.2
20260502045613 54 53 2.6 3.5 0.00 0.00 0.00 40 1020.1
20260502044613 55 46 0.0 0.9 0.00 0.00 0.00 40 1020.1
20260502043616 55 46 0.9 2.6 0.00 0.00 0.00 39 1020.1
20260502042637 55 46 2.6 3.5 0.00 0.00 0.00 41 1020.0
20260502041616 55 43 2.6 2.6 0.00 0.00 0.00 43 1020.0
20260502040616 55 43 0.9 1.7 0.00 0.00 0.00 40 1019.9
20260502035651 56 43 0.0 2.6 0.00 0.00 0.00 40 1019.7
20260502034650 56 43 1.7 2.6 0.00 0.00 0.00 39 1019.6
20260502033648 56 43 1.7 2.6 0.00 0.00 0.00 43 1019.6
20260502032627 56 43 0.9 3.5 0.00 0.00 0.00 41 1019.5
20260502031611 57 274 2.6 3.5 0.00 0.00 0.00 44 1019.4
20260502030631 58 274 0.0 0.9 0.00 0.00 0.00 39 1019.2
20260502025622 58 274 0.9 1.7 0.00 0.00 0.00 39 1019.1
20260502024643 59 274 0.9 1.7 0.00 0.00 0.00 38 1019.0
20260502023644 59 274 0.9 1.7 0.00 0.00 0.00 38 1018.9
20260502022643 60 274 1.7 3.5 0.00 0.00 0.00 36 1018.9
20260502021620 61 274 3.5 7.8 0.00 0.00 0.00 34 1018.8
20260502020624 61 263 5.2 7.8 0.00 0.00 0.00 34 1018.8
20260502015616 62 284 6.1 8.7 0.00 0.00 0.00 34 1018.6
20260502014615 62 275 6.1 10.4 0.00 0.00 0.00 34 1018.6
20260502013636 63 262 6.1 9.6 0.00 0.00 0.00 33 1018.5
20260502012618 64 294 8.7 12.2 0.00 0.00 0.00 33 1018.4
20260502011618 65 276 6.1 10.4 0.00 0.00 0.00 33 1018.4
20260502010619 65 283 6.1 10.4 0.00 0.00 0.00 25 1018.4
20260502005615 66 286 8.7 13.0 0.00 0.00 0.00 24 1018.4
20260502004615 65 291 7.0 11.3 0.00 0.00 0.00 24 1018.4
20260502003615 65 284 6.1 11.3 0.00 0.00 0.00 24 1018.3
20260502002619 66 284 6.1 11.3 0.00 0.00 0.00 24 1018.4
20260502001619 66 305 6.1 11.3 0.00 0.00 0.00 24 1018.6
20260502000621 66 318 6.1 9.6 0.00 0.00 0.00 24 1018.5
20260501235615 66 286 7.8 11.3 0.00 0.00 0.00 25 1018.6
20260501234619 65 286 7.0 13.9 0.00 0.00 0.00 27 1018.6
20260501233618 65 308 9.6 16.5 0.00 0.00 0.00 25 1018.6
20260501232619 65 289 8.7 14.8 0.00 0.00 0.00 25 1018.6
20260501231623 65 291 8.7 13.0 0.00 0.00 0.00 26 1018.6
20260501230623 65 272 8.7 14.8 0.00 0.00 0.00 26 1018.8
20260501225616 65 277 11.3 16.5 0.00 0.00 0.00 26 1018.8
20260501224621 65 294 9.6 13.9 0.00 0.00 0.00 25 1018.9
20260501223621 65 311 10.4 17.4 0.00 0.00 0.00 25 1018.9
20260501222620 64 325 10.4 13.9 0.00 0.00 0.00 27 1019.1
20260501221639 64 286 9.6 16.5 0.00 0.00 0.00 25 1019.2
20260501220621 64 294 11.3 17.4 0.00 0.00 0.00 27 1019.2
20260501215614 64 288 10.4 14.8 0.00 0.00 0.00 28 1019.4
20260501214615 64 271 12.2 20.0 0.00 0.00 0.00 28 1019.4
20260501213639 64 293 11.3 16.5 0.00 0.00 0.00 28 1019.4
20260501212638 64 280 10.4 17.4 0.00 0.00 0.00 28 1019.5
20260501211617 63 278 13.9 18.2 0.00 0.00 0.00 27 1019.6
20260501210637 64 279 11.3 17.4 0.00 0.00 0.00 27 1019.6
20260501205614 63 260 11.3 15.6 0.00 0.00 0.00 28 1019.7
20260501204634 63 266 12.2 17.4 0.00 0.00 0.00 28 1019.7
20260501203615 64 273 11.3 16.5 0.00 0.00 0.00 28 1019.7
20260501202612 63 248 9.6 13.9 0.00 0.00 0.00 29 1019.8
20260501201616 63 263 8.7 14.8 0.00 0.00 0.00 29 1019.7
20260501200615 62 252 9.6 15.6 0.00 0.00 0.00 28 1019.7
20260501195627 63 229 7.0 14.8 0.00 0.00 0.00 28 1019.7
20260501194631 63 288 8.7 14.8 0.00 0.00 0.00 29 1019.9
20260501193628 63 247 7.0 10.4 0.00 0.00 0.00 29 1020.0
20260501192649 62 311 3.5 12.2 0.00 0.00 0.00 20 1020.1
20260501191627 63 288 6.1 10.4 0.00 0.00 0.00 20 1020.2
20260501190631 63 32 4.3 7.0 0.00 0.00 0.00 23 1020.3
20260501185639 62 98 3.5 10.4 0.00 0.00 0.00 21 1020.5
20260501184617 63 77 3.5 8.7 0.00 0.00 0.00 22 1020.5
20260501183617 62 36 3.5 10.4 0.00 0.00 0.00 21 1020.7
20260501182620 61 63 3.5 9.6 0.00 0.00 0.00 23 1020.8
20260501181621 61 69 7.0 11.3 0.00 0.00 0.00 24 1020.8
20260501180629 61 80 2.6 7.0 0.00 0.00 0.00 24 1020.8
20260501175620 61 101 8.7 13.0 0.00 0.00 0.00 26 1020.9
20260501174624 60 86 7.0 13.0 0.00 0.00 0.00 27 1020.9
20260501173624 60 43 4.3 9.6 0.00 0.00 0.00 27 1020.9
20260501171623 59 70 6.1 12.2 0.00 0.00 0.00 26 1021.0
20260501170628 59 78 6.1 12.2 0.00 0.00 0.00 27 1021.0
20260501165621 59 94 7.0 16.5 0.00 0.00 0.00 27 1021.2
20260501164621 59 44 8.7 16.5 0.00 0.00 0.00 27 1021.2
20260501163625 58 50 7.0 14.8 0.00 0.00 0.00 28 1021.2
20260501162625 59 101 4.3 10.4 0.00 0.00 0.00 28 1021.1